Weather History for KGAF - January, 2012

Change the Weather History Date:

Wednesday, January 25, 2012

  Actual Average Record
Temperature  
Mean Temperature 19 °F -  
Max Temperature 32 °F 14 °F 45 °F (1973)
Min Temperature 6 °F -3 °F -37 °F (1966)
Degree Days  
Heating Degree Days 46    
Moisture  
Dew Point 19 °F    
Average Humidity 92    
Maximum Humidity 100    
Minimum Humidity 85    
Precipitation  
Precipitation 0.00 in - - ()
Sea Level Pressure  
Sea Level Pressure 29.81 in    
Wind  
Wind Speed 14 mph (South)    
Max Wind Speed 31 mph    
Max Gust Speed 39 mph    
Visibility 8 miles    
Events      
Averages and records for this station are not official NWS values.
T = Trace of Precipitation, MM = Missing Value Source: NWS Daily Summary

Daily Weather History Graph

Daily Weather History Graph

Search for Another Location

Airport or City:

Trip Planner

Search our weather history database for the weather conditions in past years. The results will help you decide how hot, cold, wet, or windy it might be!

Date:

Astronomy

Jan. 25, 2012 Rise Set
Actual Time 8:07 AM CST 5:16 PM CST
Civil Twilight 7:32 AM CST 5:51 PM CST
Nautical Twilight 6:54 AM CST 6:29 PM CST
Astronomical Twilight 6:17 AM CST 7:06 PM CST
Moon 8:51 AM CST (1/25) 8:29 PM CST (1/25)
Length of Visible Light 10h 18m
Length of Day
9h 09m
Waxing Crescent, 7% of the Moon is Illuminated
Jan 25
Waxing Crescent
Jan 30
First Quarter
Feb 7
Full
Feb 14
Last Quarter
Feb 21
New

Hourly Weather History & Observations

Time (CST) Temp. Windchill Dew Point Humidity Pressure Visibility Wind Dir Wind Speed Gust Speed Precip Events Conditions
12:15 AM 10.4 °F -1.5 °F 8.6 °F 92% 30.07 in 10.0 mi South 8.1 mph - N/A   Clear
12:35 AM 8.6 °F -2.6 °F 6.8 °F 92% 30.06 in 10.0 mi South 6.9 mph - N/A   Clear
12:55 AM 8.6 °F -2.6 °F 5.0 °F 85% 30.05 in 10.0 mi South 6.9 mph - N/A   Clear
1:15 AM 6.8 °F -4.8 °F 5.0 °F 92% 30.05 in 10.0 mi South 6.9 mph - N/A   Clear
1:35 AM 6.8 °F -4.8 °F 5.0 °F 92% 30.05 in 10.0 mi South 6.9 mph - N/A   Clear
1:55 AM 8.6 °F -3.7 °F 6.8 °F 92% 30.05 in 10.0 mi South 8.1 mph - N/A   Clear
2:15 AM 10.4 °F -3.3 °F 8.6 °F 92% 30.04 in 10.0 mi South 10.4 mph - N/A   Clear
2:35 AM 12.2 °F -0.2 °F 10.4 °F 92% 30.04 in 10.0 mi South 9.2 mph - N/A   Clear
2:55 AM 10.4 °F -3.3 °F 8.6 °F 92% 30.04 in 10.0 mi South 10.4 mph - N/A   Clear
3:15 AM 10.4 °F -3.3 °F 8.6 °F 92% 30.03 in 10.0 mi South 10.4 mph - N/A   Clear
3:35 AM 10.4 °F -1.5 °F 6.8 °F 85% 30.02 in 10.0 mi SSE 8.1 mph - N/A   Clear
3:55 AM 10.4 °F -2.4 °F 6.8 °F 85% 30.02 in 10.0 mi South 9.2 mph - N/A   Clear
4:15 AM 10.4 °F -4.1 °F 8.6 °F 92% 30.02 in 10.0 mi SSE 11.5 mph - N/A   Clear
5:15 AM 10.4 °F -5.4 °F 8.6 °F 92% 30.01 in 10.0 mi SSE 13.8 mph - N/A   Clear
5:35 AM 10.4 °F -6.0 °F 8.6 °F 92% 29.99 in 10.0 mi SSE 15.0 mph - N/A   Clear
5:55 AM 10.4 °F -6.6 °F 8.6 °F 92% 29.98 in 9.0 mi SSE 16.1 mph 20.7 mph N/A   Clear
6:15 AM 10.4 °F -7.2 °F 8.6 °F 92% 29.96 in 8.0 mi SSE 17.3 mph - N/A   Clear
6:35 AM 12.2 °F -2.5 °F 10.4 °F 92% 29.96 in 9.0 mi South 12.7 mph - N/A   Clear
6:55 AM 10.4 °F -6.0 °F 8.6 °F 92% 29.95 in 7.0 mi South 15.0 mph - N/A   Scattered Clouds
7:15 AM 12.2 °F -4.8 °F 10.4 °F 92% 29.94 in 7.0 mi South 17.3 mph 21.9 mph N/A   Scattered Clouds
7:35 AM 14.0 °F -2.5 °F 10.4 °F 86% 29.93 in 4.0 mi South 17.3 mph 26.5 mph N/A   Mostly Cloudy
7:55 AM 15.8 °F -1.1 °F 14.0 °F 93% 29.92 in 1.8 mi South 19.6 mph 28.8 mph N/A   Overcast
8:15 AM 17.6 °F 3.2 °F 15.8 °F 93% 29.92 in 1.2 mi South 15.0 mph 21.9 mph N/A   Overcast
8:55 AM 19.4 °F 4.5 °F 19.4 °F 100% 29.89 in 1.8 mi South 17.3 mph 23.0 mph N/A   Overcast
9:15 AM 23.0 °F 9.2 °F 21.2 °F 93% 29.88 in 2.5 mi South 17.3 mph 25.3 mph N/A   Overcast
9:55 AM 24.8 °F 11.5 °F 24.8 °F 100% 29.86 in 5.0 mi South 17.3 mph 24.2 mph N/A   Overcast
10:15 AM 24.8 °F 10.3 °F 24.8 °F 100% 29.84 in 7.0 mi South 20.7 mph 25.3 mph N/A   Overcast
10:35 AM 26.6 °F 13.1 °F 26.6 °F 100% 29.84 in 8.0 mi South 19.6 mph 25.3 mph N/A   Mostly Cloudy
10:55 AM 26.6 °F 12.7 °F 26.6 °F 100% 29.82 in 9.0 mi South 20.7 mph 28.8 mph N/A   Partly Cloudy
11:15 AM 26.6 °F 12.7 °F 26.6 °F 100% 29.82 in 8.0 mi South 20.7 mph 28.8 mph N/A   Scattered Clouds
11:35 AM 26.6 °F 13.4 °F 26.6 °F 100% 29.82 in 9.0 mi South 18.4 mph 27.6 mph N/A   Mostly Cloudy
11:55 AM 28.4 °F 15.1 °F 26.6 °F 93% 29.79 in 8.0 mi South 20.7 mph 26.5 mph N/A   Mostly Cloudy
12:15 PM 28.4 °F 14.7 °F 26.6 °F 93% 29.77 in 9.0 mi South 21.9 mph 33.4 mph N/A   Scattered Clouds
12:35 PM 28.4 °F 14.7 °F 26.6 °F 93% 29.75 in 10.0 mi South 21.9 mph 27.6 mph N/A   Scattered Clouds
1:15 PM 30.2 °F 17.4 °F 28.4 °F 93% 29.70 in 10.0 mi South 20.7 mph 33.4 mph N/A   Mostly Cloudy
1:55 PM 32.0 °F 19.2 °F 28.4 °F 87% 29.67 in 10.0 mi South 23.0 mph 33.4 mph N/A   Overcast
2:15 PM 32.0 °F 19.8 °F 28.4 °F 87% 29.67 in 10.0 mi South 20.7 mph 29.9 mph N/A   Overcast
2:35 PM 32.0 °F 19.8 °F 28.4 °F 87% 29.64 in 9.0 mi South 20.7 mph 31.1 mph N/A   Mostly Cloudy
2:55 PM 32.0 °F 18.4 °F 28.4 °F 87% 29.64 in 10.0 mi South 26.5 mph 35.7 mph N/A   Clear
3:15 PM 32.0 °F 18.6 °F 28.4 °F 87% 29.63 in 7.0 mi South 25.3 mph 32.2 mph N/A   Partly Cloudy
3:35 PM 30.2 °F 14.9 °F 26.6 °F 86% 29.60 in 7.0 mi South 31.1 mph 39.1 mph N/A   Partly Cloudy
3:55 PM 28.4 °F 13.0 °F 26.6 °F 93% 29.60 in 7.0 mi South 28.8 mph 36.8 mph N/A   Scattered Clouds
4:15 PM 28.4 °F 14.7 °F 26.6 °F 93% 29.59 in 7.0 mi South 21.9 mph 36.8 mph N/A   Mostly Cloudy
4:35 PM 28.4 °F 13.5 °F 26.6 °F 93% 29.60 in 5.0 mi South 26.5 mph 34.5 mph N/A   Mostly Cloudy
4:55 PM 28.4 °F 14.1 °F 26.6 °F 93% 29.58 in 5.0 mi South 24.2 mph 32.2 mph N/A   Overcast
5:15 PM 28.4 °F 14.7 °F 26.6 °F 93% 29.57 in 7.0 mi South 21.9 mph 33.4 mph N/A   Mostly Cloudy
5:35 PM 28.4 °F 15.4 °F 26.6 °F 93% 29.58 in 7.0 mi South 19.6 mph 26.5 mph N/A   Partly Cloudy
5:55 PM 28.4 °F 17.0 °F 26.6 °F 93% 29.58 in 9.0 mi South 15.0 mph - N/A   Clear
6:15 PM 28.4 °F 17.5 °F 24.8 °F 86% 29.58 in 10.0 mi South 13.8 mph - N/A   Clear
6:35 PM 28.4 °F 17.0 °F 24.8 °F 86% 29.57 in 10.0 mi South 15.0 mph 20.7 mph N/A   Clear
6:55 PM 26.6 °F 15.7 °F 24.8 °F 93% 29.57 in 10.0 mi South 12.7 mph 19.6 mph N/A   Clear
7:15 PM 28.4 °F 18.0 °F 24.8 °F 86% 29.56 in 10.0 mi South 12.7 mph - N/A   Clear
7:35 PM 28.4 °F 17.0 °F 24.8 °F 86% 29.56 in 10.0 mi South 15.0 mph - N/A   Clear
8:15 PM 28.4 °F 16.2 °F 24.8 °F 86% 29.54 in 10.0 mi South 17.3 mph 21.9 mph N/A   Partly Cloudy
8:35 PM 28.4 °F 16.6 °F 24.8 °F 86% 29.53 in 10.0 mi South 16.1 mph 21.9 mph N/A   Clear
8:55 PM 26.6 °F 14.3 °F 24.8 °F 93% 29.52 in 10.0 mi South 16.1 mph - N/A   Clear
9:15 PM 26.6 °F 15.2 °F 24.8 °F 93% 29.51 in 10.0 mi South 13.8 mph 19.6 mph N/A   Clear
9:35 PM 26.6 °F 15.2 °F 24.8 °F 93% 29.51 in 10.0 mi SSW 13.8 mph - N/A   Clear
9:55 PM 26.6 °F 15.7 °F 24.8 °F 93% 29.50 in 10.0 mi SSW 12.7 mph - N/A   Clear
10:15 PM 26.6 °F 15.7 °F 24.8 °F 93% 29.50 in 10.0 mi SSW 12.7 mph - N/A   Clear
10:35 PM 26.6 °F 15.7 °F 24.8 °F 93% 29.50 in 10.0 mi SSW 12.7 mph - N/A   Clear
10:55 PM 26.6 °F 15.7 °F 23.0 °F 86% 29.50 in 10.0 mi SW 12.7 mph - N/A   Clear
11:15 PM 30.2 °F 19.8 °F 26.6 °F 86% 29.50 in 10.0 mi SW 13.8 mph - N/A   Clear
11:35 PM 32.0 °F 22.1 °F 26.6 °F 80% 29.50 in 10.0 mi WSW 13.8 mph - N/A   Clear
11:55 PM 32.0 °F 22.5 °F 26.6 °F 80% 29.50 in 10.0 mi WSW 12.7 mph - N/A   Clear